TimeEDT,TemperatureF,Dew PointF,Humidity,Sea Level PressureIn,VisibilityMPH,Wind Direction,Wind SpeedMPH,Gust SpeedMPH,PrecipitationIn,Events,Conditions,WindDirDegrees,DateUTC
12:15 AM,50.0,33.8,54,29.71,10.0,West,8.1,-,N/A,,Clear,260,2012-10-30 04:15:00
12:35 AM,50.0,33.8,54,29.71,10.0,WSW,8.1,-,N/A,,Clear,250,2012-10-30 04:35:00
12:55 AM,50.0,33.8,54,29.71,10.0,West,6.9,-,N/A,,Clear,270,2012-10-30 04:55:00
1:15 AM,48.2,33.8,58,29.71,10.0,West,5.8,-,N/A,,Clear,260,2012-10-30 05:15:00
1:35 AM,48.2,32.0,54,29.70,10.0,West,5.8,-,N/A,,Clear,270,2012-10-30 05:35:00
1:55 AM,48.2,32.0,54,29.70,10.0,West,8.1,-,N/A,,Clear,270,2012-10-30 05:55:00
2:15 AM,48.2,32.0,54,29.69,10.0,West,8.1,-,N/A,,Clear,270,2012-10-30 06:15:00
2:35 AM,46.4,32.0,57,29.69,10.0,West,8.1,-,N/A,,Clear,260,2012-10-30 06:35:00
3:55 AM,46.4,32.0,57,29.67,10.0,West,6.9,-,N/A,,Clear,270,2012-10-30 07:55:00
4:15 AM,46.4,30.2,53,29.67,10.0,West,8.1,-,N/A,,Clear,270,2012-10-30 08:15:00
4:55 AM,46.4,30.2,53,29.67,10.0,West,9.2,-,N/A,,Clear,270,2012-10-30 08:55:00
5:15 AM,46.4,30.2,53,29.67,10.0,West,9.2,-,N/A,,Clear,270,2012-10-30 09:15:00
5:35 AM,46.4,30.2,53,29.67,10.0,West,9.2,16.1,N/A,,Clear,270,2012-10-30 09:35:00
5:55 AM,46.4,30.2,53,29.68,10.0,West,10.4,17.3,N/A,,Clear,270,2012-10-30 09:55:00
6:15 AM,46.4,30.2,53,29.68,10.0,West,8.1,-,N/A,,Clear,270,2012-10-30 10:15:00
6:35 AM,46.4,30.2,53,29.68,10.0,West,10.4,16.1,N/A,,Clear,260,2012-10-30 10:35:00
6:55 AM,44.6,32.0,61,29.68,10.0,West,8.1,-,N/A,,Clear,260,2012-10-30 10:55:00
7:15 AM,44.6,32.0,61,29.68,10.0,West,9.2,-,N/A,,Clear,260,2012-10-30 11:15:00
7:35 AM,44.6,32.0,61,29.68,10.0,West,8.1,-,N/A,,Clear,260,2012-10-30 11:35:00
7:55 AM,44.6,32.0,61,29.69,10.0,West,6.9,-,N/A,,Clear,260,2012-10-30 11:55:00
8:15 AM,44.6,32.0,61,29.69,10.0,West,8.1,-,N/A,,Clear,260,2012-10-30 12:15:00
8:35 AM,46.4,32.0,57,29.70,10.0,West,9.2,-,N/A,,Clear,260,2012-10-30 12:35:00
8:55 AM,46.4,32.0,57,29.70,10.0,West,9.2,-,N/A,,Clear,260,2012-10-30 12:55:00
9:15 AM,48.2,32.0,54,29.70,10.0,West,9.2,21.9,N/A,,Clear,260,2012-10-30 13:15:00
9:35 AM,50.0,32.0,50,29.70,10.0,West,12.7,20.7,N/A,,Clear,270,2012-10-30 13:35:00
9:55 AM,51.8,32.0,47,29.70,10.0,WNW,18.4,25.3,N/A,,Clear,290,2012-10-30 13:55:00
10:15 AM,51.8,32.0,47,29.70,10.0,West,15.0,23.0,N/A,,Clear,270,2012-10-30 14:15:00
10:35 AM,53.6,32.0,44,29.71,10.0,West,16.1,26.5,N/A,,Clear,280,2012-10-30 14:35:00
10:55 AM,53.6,32.0,44,29.70,10.0,West,12.7,20.7,N/A,,Clear,260,2012-10-30 14:55:00
11:15 AM,55.4,32.0,41,29.70,10.0,West,13.8,24.2,N/A,,Clear,270,2012-10-30 15:15:00
11:35 AM,57.2,32.0,38,29.70,10.0,West,13.8,27.6,N/A,,Clear,280,2012-10-30 15:35:00
11:55 AM,57.2,30.2,36,29.70,10.0,West,20.7,26.5,N/A,,Clear,280,2012-10-30 15:55:00
12:15 PM,59.0,30.2,34,29.70,10.0,West,18.4,26.5,N/A,,Clear,280,2012-10-30 16:15:00
12:35 PM,60.8,30.2,31,29.69,10.0,West,18.4,24.2,N/A,,Clear,280,2012-10-30 16:35:00
12:55 PM,60.8,30.2,31,29.68,10.0,West,13.8,26.5,N/A,,Clear,280,2012-10-30 16:55:00
1:15 PM,60.8,28.4,29,29.68,10.0,West,11.5,29.9,N/A,,Clear,270,2012-10-30 17:15:00
1:35 PM,60.8,28.4,29,29.67,10.0,West,16.1,25.3,N/A,,Clear,280,2012-10-30 17:35:00
1:55 PM,62.6,28.4,27,29.66,10.0,WNW,23.0,29.9,N/A,,Clear,300,2012-10-30 17:55:00
2:15 PM,62.6,26.6,26,29.66,10.0,West,19.6,26.5,N/A,,Clear,280,2012-10-30 18:15:00
2:35 PM,60.8,26.6,27,29.66,10.0,West,20.7,31.1,N/A,,Clear,280,2012-10-30 18:35:00
2:55 PM,62.6,26.6,26,29.66,10.0,WNW,18.4,32.2,N/A,,Clear,290,2012-10-30 18:55:00
3:15 PM,62.6,26.6,26,29.66,10.0,West,16.1,25.3,N/A,,Clear,270,2012-10-30 19:15:00
3:35 PM,62.6,26.6,26,29.66,10.0,WNW,18.4,31.1,N/A,,Clear,290,2012-10-30 19:35:00
3:55 PM,62.6,26.6,26,29.67,10.0,West,17.3,32.2,N/A,,Clear,280,2012-10-30 19:55:00
4:15 PM,62.6,26.6,26,29.67,10.0,West,20.7,29.9,N/A,,Clear,280,2012-10-30 20:15:00
4:35 PM,62.6,26.6,26,29.67,10.0,West,17.3,26.5,N/A,,Clear,270,2012-10-30 20:35:00
4:55 PM,62.6,26.6,26,29.68,10.0,West,11.5,31.1,N/A,,Clear,280,2012-10-30 20:55:00
5:15 PM,60.8,26.6,27,29.68,10.0,West,11.5,19.6,N/A,,Clear,270,2012-10-30 21:15:00
5:35 PM,60.8,24.8,25,29.69,10.0,West,12.7,24.2,N/A,,Clear,280,2012-10-30 21:35:00
5:55 PM,60.8,24.8,25,29.69,10.0,West,13.8,23.0,N/A,,Clear,270,2012-10-30 21:55:00
6:15 PM,60.8,26.6,27,29.70,10.0,West,11.5,24.2,N/A,,Clear,280,2012-10-30 22:15:00
6:35 PM,59.0,26.6,29,29.71,10.0,West,9.2,-,N/A,,Clear,270,2012-10-30 22:35:00
6:55 PM,59.0,26.6,29,29.72,10.0,West,8.1,-,N/A,,Clear,270,2012-10-30 22:55:00
7:15 PM,57.2,26.6,31,29.73,10.0,West,8.1,-,N/A,,Clear,270,2012-10-30 23:15:00
7:35 PM,57.2,26.6,31,29.75,10.0,West,9.2,-,N/A,,Clear,280,2012-10-30 23:35:00
7:55 PM,55.4,26.6,33,29.75,10.0,West,6.9,-,N/A,,Clear,270,2012-10-30 23:55:00
8:15 PM,55.4,26.6,33,29.76,10.0,West,8.1,-,N/A,,Clear,270,2012-10-31 00:15:00
8:35 PM,55.4,26.6,33,29.77,10.0,West,6.9,-,N/A,,Clear,270,2012-10-31 00:35:00
8:55 PM,53.6,26.6,35,29.78,10.0,West,5.8,-,N/A,,Clear,260,2012-10-31 00:55:00
9:15 PM,53.6,26.6,35,29.79,10.0,West,3.5,-,N/A,,Clear,270,2012-10-31 01:15:00
9:35 PM,51.8,26.6,38,29.81,10.0,West,4.6,-,N/A,,Clear,270,2012-10-31 01:35:00
9:55 PM,51.8,26.6,38,29.82,10.0,West,5.8,-,N/A,,Clear,260,2012-10-31 01:55:00
10:15 PM,51.8,26.6,38,29.82,10.0,West,11.5,16.1,N/A,,Clear,270,2012-10-31 02:15:00
10:35 PM,53.6,26.6,35,29.83,10.0,West,8.1,-,N/A,,Clear,280,2012-10-31 02:35:00
10:55 PM,51.8,26.6,38,29.84,10.0,West,5.8,-,N/A,,Clear,260,2012-10-31 02:55:00
11:15 PM,51.8,28.4,41,29.84,10.0,West,4.6,-,N/A,,Clear,260,2012-10-31 03:15:00
11:35 PM,50.0,28.4,43,29.84,10.0,West,5.8,-,N/A,,Clear,260,2012-10-31 03:35:00
11:55 PM,50.0,28.4,43,29.84,10.0,West,6.9,-,N/A,,Clear,270,2012-10-31 03:55:00